Regional Weather Roundup
Issued by NWS Goodland, KS

Home | Current Version | Previous Version | Graphics & Text | Print | Product List | Glossary On
Versions: 1 2 3 4 5 6 7 8 9 10 11 12 13 14 15 16 17 18 19 20 21 22 23 24 25 26 27 28 29 30 31 32 33 34 35 36 37 38 39 40 41 42 43 44 45 46 47 48 49 50
000
ASUS43 KGLD 212259
RWRGLD

GOODLAND FORECAST AREA HOURLY WEATHER ROUNDUP
NATIONAL WEATHER SERVICE GOODLAND KS
400 PM MST SUN DEC 21 2014

...OFFICIAL OBSERVATIONS...

CITY           SKY/WX    TMP DP  RH WIND       PRES   REMARKS
GOODLAND KS    CLOUDY    41  34  76 S7        29.54S
HILL CITY KS   CLOUDY    44  36  73 S10       29.60S
IMPERIAL NEB   CLOUDY    44  31  60 S8        29.50F
MCCOOK NEB     CLOUDY    38  32  79 S9        29.54F
AKRON CO       CLOUDY    43  32  65 CALM      29.53S
BURLINGTON CO  CLOUDY    43  33  68 S5        29.53F
LIMON CO       CLOUDY    45  26  47 NW8       29.56R
$$

...UNOFFICIAL OBSERVATIONS...

CITY           SKY/WX    TMP DP  RH WIND       PRES   REMARKS
COLBY KS       CLOUDY    37  36  93 S9        29.55F
GOVE KS          N/A     45  32  60 MISG        N/A
NORTON KS      CLEAR     43  34  70 S8        29.57S
TRIBUNE KS     CLOUDY    50  36  57 S8        29.55F
KIT CARSON CO    N/A     46  34  63 MISG        N/A
YUMA CO          N/A     39  32  76 W12         N/A
$$


USA.gov is the U.S. government's official web portal to all federal, state and local government web resources and services.